[[{"header":{"parameterUnit":"m.s-1","parameterCategory":1,"la1":30.2991,"la2":30.254,"lo1":-89.0895,"lo2":-89.0444,"dy":0.0017,"dx":0.0017,"nx":28,"ny":28,"refTime":"2026-02-27T03:00:00:Z","depth":0,"parameterNumber":2,"parameterNumberName":"U-component_of_WINDS"},"data":[0,0,0,0,0,0,0,0,0,0,0,0,0,0,0,0,0,0,0,0,0,0,0,0,0,0,0,0,0,0,0,0,0,0,0,0,0,0,0,0,0,0,0,0,0,0,0,0,0,0,0,0,0,0,0,0,0,0,0.9782,0.9783,0,0.9839,0.984,0.9841,0.9826,0.9825,0.9824,0.9823,0.9885,0.9888,0.9891,0,0,0,0,0,0,0,0,0,0,0,0,0,0.9663,0.9665,0.9782,0.9783,0.9783,0.9839,0.984,0.9841,0.9827,0.9825,0.9824,0.9822,0.9884,0.9888,0.9891,0,0,0,0,0,0,0,0,0,0,0,0,0,0.9717,0.9666,0.9782,0.9783,0.9783,0.9839,0.984,0.9841,0.9827,0.9825,0.9823,0.9822,0.9883,0.9887,0.9891,0.9951,0,0,0.9904,0.9906,0,0,0,0,0,0,0,0,0.9714,0.9722,0.9782,0.9783,0.9784,0.9824,0.9821,0.9878,0.9827,0.9811,0.9823,0.9821,0.9867,0.9872,0.9887,0.9954,0.9956,0.9904,0.9907,0.9908,0.991,0,0,0,0,0,0,0,0.971,0.9719,0.9805,0.9783,0.9784,0.9782,0.9787,0.9832,0.9848,0.9812,0.9811,0.9818,0.9867,0.9883,0.9888,0.9957,0.9904,0.9908,0.991,0.9912,1.0078,1.008,0,0,0,0,0,0,0.9705,0.9716,0.9803,0.9807,0.9744,0.9785,0.9792,0.9813,0.9847,0.985,0.9819,0.9817,0.9876,0.9883,0.989,0.9963,0.9908,0.9912,0.9915,1.0076,1.0078,1.008,0,0,0,0,0,0,0.9703,0.9713,0.9801,0.9761,0.9772,0.9789,0.9813,0.9815,0.9831,0.9852,0.9855,0.9832,0.9875,0.9884,0.9936,0.9965,0.9914,0.9918,1.0073,1.0076,1.0079,1.011,0,0,0,0,0,0,0.97,0.9713,0.9734,0.9762,0.9774,0.9845,0.9815,0.9817,0.9837,0.9835,0.9866,0.9869,0.9875,0.993,0.994,0.997,0.9921,1.0071,1.0075,1.0078,1.0106,1.0113,1.0119,0,0,0,0,0,0.9695,0.9741,0.9736,0.9746,0.9802,0.9846,0.9854,0.9858,0.984,0.9863,0.9877,0.9868,0.996,0.9935,0.9946,0.9978,1.0069,1.0074,1.0078,1.0103,1.0112,1.0119,0,0,0,0,0,0,0.9718,0.9745,0.9739,0.9794,0.9818,0.9844,0.9873,0.9867,0.9897,0.9894,0.9899,0.9906,0.996,0.9974,0.9946,1.0038,1.0012,1.0019,1.0028,1.0036,1.0042,1.0039,0.9924,0,0,0,0,0,0.9729,0.9762,0.9784,0.9831,0.9843,0.9856,0.9875,0.9877,0.9902,0.9912,0.993,0.9956,0.9991,1.0014,1.0047,1.0107,1.0115,1.0135,1.0141,1.0147,1.0153,1.0189,1.0198,1.0095,1.0095,1.0095,0,0,0.9753,0.9772,0.9793,0.9836,0.9855,0.989,0.9865,0.9903,0.993,0.9919,0.9969,0.9983,1.0012,1.0069,1.0095,1.0082,1.0183,1.0152,1.0156,1.016,1.0194,1.0204,1.0213,1.0098,1.0097,1.0097,0,0,0.9816,0.9832,0.9874,0.9893,0.9921,0.9929,0.9939,0.9966,0.9974,1.0024,1.0017,1.0049,1.0109,1.013,1.0149,1.022,1.0214,1.023,1.0266,1.03,1.0309,1.0316,1.0343,1.0353,1.0236,1.0237,1.0237,0,0.9843,0.9895,0.9896,0.9936,0.9956,0.9946,0.999,1.0008,1.0046,1.0061,1.0046,1.0121,1.0139,1.0202,1.022,1.0234,1.0248,1.0228,1.0307,1.0314,1.0321,1.0348,1.0358,1.0239,1.0238,1.0238,1.0238,0,0.9928,0.9964,0.9994,1.0031,1.0054,1.0095,1.0104,1.0128,1.0127,1.0137,1.0189,1.0211,1.0249,1.0264,1.0264,1.0327,1.0319,1.0305,1.028,1.0333,1.0358,1.0368,1.0241,1.0241,1.024,1.024,0,0,1.0007,1.0044,1.0055,1.0072,1.0102,1.0131,1.0172,1.0208,1.023,1.0256,1.0292,1.0342,1.033,1.0351,1.0353,1.0383,1.0441,1.0366,1.0367,1.0381,1.0515,1.0527,1.0538,1.0436,1.0437,1.0439,1.0513,0,1.0074,1.0146,1.0149,1.0215,1.025,1.0241,1.0277,1.03,1.0311,1.0343,1.0354,1.0391,1.0371,1.0384,1.0413,1.0427,1.0468,1.0422,1.0472,1.0473,1.0467,1.0551,1.0563,1.0632,1.0523,1.0524,1.0525,0,1.0162,1.0191,1.0261,1.0287,1.0302,1.0334,1.0368,1.0398,1.0425,1.043,1.0454,1.0452,1.0496,1.0466,1.0528,1.0497,1.0517,1.0527,1.053,1.0537,1.0505,1.0563,1.0654,1.0666,1.054,1.0539,1.0538,0,1.0217,1.0272,1.0322,1.0336,1.0367,1.0391,1.0405,1.043,1.0452,1.0482,1.0497,1.0531,1.0551,1.0579,1.0587,1.0564,1.0649,1.062,1.0657,1.0657,1.0677,1.0677,1.0776,1.0686,1.0686,1.0686,1.0686,0,1.0293,1.0336,1.0347,1.0377,1.0426,1.0429,1.0478,1.0491,1.0513,1.0547,1.0541,1.0573,1.058,1.0614,1.0621,1.0672,1.068,1.0688,1.069,1.069,1.0689,1.0705,1.0702,1.0688,1.0688,1.0687,1.0687,0,1.0363,1.0371,1.0425,1.0449,1.0457,1.0492,1.0514,1.0544,1.0553,1.0597,1.0607,1.0623,1.0663,1.0672,1.072,1.0724,1.0786,1.0782,1.0777,1.0778,1.0815,1.0813,1.0931,1.0947,1.0844,1.0845,1.0846,0,1.0412,1.0445,1.0474,1.0495,1.0511,1.0546,1.0568,1.0573,1.0597,1.063,1.0656,1.0695,1.0727,1.0791,1.0808,1.0845,1.0843,1.0882,1.0849,1.0849,1.0847,1.0846,1.085,1.0889,1.089,1.0891,1.0892,0,1.0499,1.0502,1.0534,1.0568,1.0594,1.0621,1.0647,1.0666,1.0674,1.0701,1.0742,1.0766,1.0815,1.0855,1.0892,1.0908,1.0902,1.0901,1.0913,1.0915,1.0912,1.0916,1.0797,1.0899,1.0899,1.0898,1.0898,1.0897,1.0562,1.0592,1.0617,1.0653,1.0673,1.0697,1.0727,1.074,1.0774,1.0813,1.0814,1.0858,1.0885,1.0934,1.0952,1.0988,1.0977,1.0992,1.0997,1.1001,1.1006,1.0904,1.0995,1.0995,1.0994,1.0994,1.0994,0,1.0651,1.0666,1.0699,1.0736,1.0765,1.0755,1.0783,1.0809,1.0848,1.0873,1.0904,1.0952,1.099,1.1009,1.1047,1.1073,1.1071,1.1083,1.1083,1.1087,1.1012,1.1,1.1084,1.1084,1.1084,1.1084,1.1084,1.1084,1.0701,1.0751,1.0757,1.0818,1.0833,1.0877,1.0894,1.0917,1.0937,1.099,1.1022,1.1033,1.1057,1.1097,1.1132,1.1137,1.1153,1.1166,1.117,1.1101,1.1092,1.1083,1.1072,1.1169,1.1169,1.1242,1.1243,1.1243]},{"header":{"parameterUnit":"m.s-1","parameterCategory":1,"la1":30.2991,"la2":30.254,"lo1":-89.0895,"lo2":-89.0444,"dy":0.0017,"dx":0.0017,"nx":28,"ny":28,"refTime":"2026-02-27T03:00:00:Z","depth":0,"parameterNumber":3,"parameterNumberName":"V-component_of_WINDS"},"data":[0,0,0,0,0,0,0,0,0,0,0,0,0,0,0,0,0,0,0,0,0,0,0,0,0,0,0,0,0,0,0,0,0,0,0,0,0,0,0,0,0,0,0,0,0,0,0,0,0,0,0,0,0,0,0,0,0,0,2.3413,2.3414,0,2.348,2.3481,2.3481,2.3464,2.3463,2.3462,2.3461,2.3526,2.3529,2.3532,0,0,0,0,0,0,0,0,0,0,0,0,0,2.3269,2.3272,2.3413,2.3414,2.3415,2.348,2.3481,2.3482,2.3465,2.3463,2.3462,2.346,2.3525,2.3529,2.3532,0,0,0,0,0,0,0,0,0,0,0,0,0,2.3333,2.3273,2.3413,2.3414,2.3415,2.348,2.3481,2.3482,2.3465,2.3463,2.3461,2.3459,2.3524,2.3528,2.3533,2.3599,0,0,2.3546,2.3548,0,0,0,0,0,0,0,0,2.3329,2.3338,2.3413,2.3414,2.3415,2.3462,2.3454,2.3521,2.3466,2.3446,2.3461,2.3458,2.3506,2.3512,2.3529,2.3602,2.3605,2.3547,2.355,2.3551,2.3553,0,0,0,0,0,0,0,2.3325,2.3335,2.3439,2.3414,2.3416,2.3411,2.3418,2.3467,2.3486,2.3448,2.3446,2.3455,2.3506,2.3525,2.353,2.3606,2.3547,2.3551,2.3553,2.3555,2.3739,2.3741,0,0,0,0,0,0,2.332,2.3332,2.3437,2.3441,2.3367,2.3415,2.3423,2.3449,2.3486,2.3489,2.3456,2.3454,2.3518,2.3525,2.3532,2.3614,2.3551,2.3556,2.3558,2.3736,2.3739,2.3741,0,0,0,0,0,0,2.3317,2.333,2.3435,2.3386,2.3399,2.342,2.3449,2.3451,2.3469,2.3492,2.3495,2.3471,2.3517,2.3526,2.3583,2.3616,2.3558,2.3562,2.3734,2.3737,2.374,2.3776,0,0,0,0,0,0,2.3313,2.3329,2.3355,2.3387,2.3402,2.3485,2.3451,2.3454,2.3477,2.3475,2.3507,2.3511,2.3516,2.3577,2.3588,2.3621,2.3565,2.3731,2.3735,2.3739,2.3772,2.378,2.3787,0,0,0,0,0,2.3308,2.3362,2.3356,2.3369,2.3435,2.3487,2.3496,2.3501,2.348,2.3506,2.3521,2.351,2.361,2.3583,2.3595,2.363,2.3729,2.3734,2.3739,2.3769,2.3779,2.3787,0,0,0,0,0,0,2.3331,2.3366,2.336,2.3426,2.3454,2.3484,2.3517,2.3511,2.3545,2.3541,2.3545,2.3553,2.3611,2.3626,2.3595,2.3696,2.3666,2.3674,2.3685,2.3695,2.3702,2.3698,2.3569,0,0,0,0,0,2.3344,2.3384,2.3412,2.3467,2.3482,2.3497,2.352,2.3522,2.355,2.3562,2.3581,2.3608,2.3646,2.3671,2.3707,2.3774,2.3781,2.3804,2.3811,2.3817,2.3824,2.3861,2.3872,2.3758,2.3758,2.3758,0,0,2.3371,2.3395,2.342,2.3473,2.3494,2.3536,2.3507,2.3551,2.3582,2.3568,2.3624,2.3639,2.367,2.3732,2.3761,2.3746,2.3857,2.3824,2.3828,2.3832,2.3868,2.3879,2.3888,2.3761,2.376,2.376,0,0,2.3442,2.3463,2.3513,2.3535,2.3569,2.3579,2.3591,2.3622,2.3632,2.3688,2.3679,2.3714,2.3779,2.3802,2.3822,2.3901,2.3893,2.3913,2.3953,2.3989,2.3998,2.4006,2.4035,2.4046,2.3919,2.3919,2.3919,0,2.3471,2.3533,2.3538,2.3584,2.3608,2.3598,2.3648,2.3669,2.3712,2.3729,2.3712,2.3794,2.3814,2.3882,2.3902,2.3918,2.3931,2.391,2.3996,2.4004,2.4012,2.404,2.4051,2.3922,2.3921,2.3921,2.3921,0,2.3568,2.3611,2.3647,2.369,2.3718,2.3765,2.3777,2.3803,2.3803,2.3814,2.3872,2.3895,2.3936,2.3952,2.3951,2.4021,2.4011,2.3995,2.3965,2.4025,2.4052,2.4062,2.3925,2.3924,2.3924,2.3923,0,0,2.3656,2.3702,2.3715,2.3735,2.3772,2.3805,2.3851,2.3893,2.3916,2.3946,2.3985,2.404,2.4027,2.4049,2.4051,2.4082,2.4145,2.4063,2.4064,2.4078,2.4223,2.4236,2.4248,2.4139,2.4141,2.4142,2.4221,0,2.373,2.3814,2.382,2.3896,2.3936,2.3927,2.3968,2.3994,2.4006,2.4042,2.4054,2.4094,2.4072,2.4085,2.4116,2.4131,2.4174,2.4125,2.4176,2.4177,2.417,2.4262,2.4275,2.4349,2.4231,2.4233,2.4234,0,2.3829,2.3864,2.3943,2.3975,2.3992,2.4029,2.4068,2.4101,2.4131,2.4137,2.4163,2.416,2.4208,2.4175,2.4241,2.4207,2.4228,2.4238,2.4241,2.4247,2.4211,2.4272,2.4372,2.4384,2.4251,2.4249,2.4248,0,2.3887,2.3953,2.4009,2.4027,2.4065,2.4091,2.4108,2.4135,2.416,2.4193,2.4209,2.4247,2.4268,2.4296,2.4304,2.4279,2.4369,2.4337,2.4376,2.4376,2.4396,2.4395,2.4503,2.4408,2.4407,2.4407,2.4407,0,2.397,2.402,2.4036,2.4071,2.4126,2.4132,2.4186,2.4201,2.4226,2.4263,2.4257,2.4292,2.4299,2.4335,2.434,2.4394,2.4403,2.441,2.4411,2.4411,2.4411,2.4426,2.4421,2.441,2.441,2.4409,2.4408,0,2.4045,2.4057,2.4119,2.415,2.4159,2.4198,2.4225,2.4258,2.4269,2.4316,2.4328,2.4345,2.4387,2.4397,2.4447,2.445,2.4515,2.451,2.4505,2.4505,2.4544,2.4541,2.4666,2.4684,2.4576,2.4577,2.4578,0,2.4098,2.4136,2.4172,2.4197,2.4215,2.4256,2.4281,2.4288,2.4314,2.4351,2.438,2.4422,2.4456,2.4524,2.454,2.4578,2.4575,2.4616,2.4581,2.458,2.4577,2.4576,2.458,2.4624,2.4625,2.4626,2.4627,0,2.4191,2.4196,2.4234,2.4274,2.4304,2.4336,2.4366,2.4386,2.4397,2.4427,2.4471,2.4497,2.4549,2.4591,2.4629,2.4645,2.4638,2.4637,2.4649,2.465,2.4646,2.465,2.4525,2.4635,2.4634,2.4633,2.4633,2.4633,2.4258,2.4292,2.4322,2.4365,2.4388,2.4416,2.445,2.4465,2.4502,2.4546,2.4547,2.4595,2.4623,2.4674,2.4693,2.473,2.4717,2.4733,2.4737,2.4741,2.4746,2.4639,2.4737,2.4736,2.4736,2.4736,2.4736,0,2.4352,2.4372,2.441,2.4453,2.4486,2.4477,2.451,2.4538,2.4581,2.4608,2.4642,2.4693,2.4733,2.4753,2.4792,2.4818,2.4816,2.4829,2.4827,2.4831,2.4754,2.4741,2.483,2.483,2.483,2.483,2.483,2.483,2.4405,2.4462,2.4471,2.4539,2.4558,2.4606,2.4626,2.4652,2.4674,2.4731,2.4765,2.4778,2.4803,2.4844,2.4881,2.4885,2.4901,2.4915,2.4918,2.4846,2.4837,2.4828,2.4815,2.4918,2.4918,2.4992,2.4993,2.4994]}]]